Moses Lake, WA
on Sunday, November 4, 2012

Sunday
Previous Day Next Day
Daily Summary
 ActualAverageRecord
Temperature
Mean Temperature °F 42°F  
Max Temperature 61°F 53°F 66°F (2007)
Min Temperature 48°F 31°F 12°F (2002)
Degree Days
Heating Degree Days 10 23  
Month to date heating degree days 58 90  
Since 1 July heating degree days 583 727  
Cooling Degree Days 0 0  
Month to date cooling degree days 0 0  
Year to date cooling degree days 719 615  
Growing Degree Days4 (Base °F )  
Moisture
Dew Point 47°F   
Average Humidity 75    
Maximum Humidity 86    
Minimum Humidity 64    
Precipitation
Precipitation 0.00 in 0.04 in 0.19 in (2008)
Month to date precipitation 0.08 0.14  
Year to date precipitation 6.68 6.61  
Wind
Wind Speed 4 mph   
Max Wind Speed 10 mph   
Max Gust Speed 13 mph   
Visibility 10 miles   
Events     

Key: T is trace of precipitation, MM is missing value
Source: NWS Daily Summary
Time(PST)TemperatureDew PointHumidity Pressure Visibility Wind DirectionWind SpeedGust SpeedPrecipitationEvents Conditions
12:52 AM 54.0°F 46.0°F 75% 30.18 in 10.0 miles Calm Calm - N/A   Overcast
1:52 AM 52.0°F 45.0°F 77% 30.19 in 10.0 miles Calm Calm - N/A   Overcast
1:52 AM 52.0°F 45.0°F 77% 30.19 in 10.0 miles South 3.5 mph - N/A   Overcast
2:52 AM 48.9°F 44.1°F 83% 30.20 in 10.0 miles SE 3.5 mph - N/A   Partly Cloudy
3:52 AM 48.9°F 44.1°F 83% 30.22 in 10.0 miles SSE 3.5 mph - N/A   Mostly Cloudy
4:52 AM 48.9°F 44.1°F 83% 30.21 in 10.0 miles SE 5.8 mph - N/A   Overcast
5:52 AM 48.9°F 44.1°F 83% 30.22 in 10.0 miles South 5.8 mph - N/A   Overcast
6:52 AM 50.0°F 45.0°F 83% 30.27 in 10.0 miles Calm Calm - N/A   Mostly Cloudy
7:52 AM 50.0°F 45.0°F 83% 30.29 in 10.0 miles Calm Calm - N/A   Mostly Cloudy
8:52 AM 53.1°F 46.0°F 77% 30.28 in 10.0 miles SSE 4.6 mph - N/A   Clear
9:52 AM 55.0°F 48.0°F 77% 30.28 in 10.0 miles South 4.6 mph - N/A   Clear
10:52 AM 57.0°F 48.0°F 72% 30.29 in 10.0 miles SE 4.6 mph - N/A   Clear
11:52 AM 59.0°F 48.9°F 69% 30.28 in 10.0 miles SSE 4.6 mph - N/A   Clear
12:52 PM 61.0°F 48.9°F 64% 30.27 in 10.0 miles SSW 5.8 mph - N/A   Clear
1:52 PM 60.1°F 48.0°F 64% 30.27 in 10.0 miles South 6.9 mph - N/A   Clear
2:52 PM 60.1°F 48.9°F 67% 30.29 in 10.0 miles South 6.9 mph - N/A   Clear
3:52 PM 59.0°F 51.1°F 75% 30.28 in 10.0 miles SE 3.5 mph - N/A   Clear
4:52 PM 57.0°F 50.0°F 77% 30.26 in 10.0 miles Calm Calm - N/A   Clear
5:52 PM 55.0°F 48.9°F 80% 30.27 in 10.0 miles Calm Calm - N/A   Clear
6:52 PM 53.1°F 48.0°F 83% 30.27 in 10.0 miles Calm Calm - N/A   Clear
7:52 PM 50.0°F 46.0°F 86% 30.26 in 10.0 miles Calm Calm - N/A   Clear
8:52 PM 50.0°F 46.0°F 86% 30.26 in 10.0 miles SE 4.6 mph - N/A   Clear
9:52 PM 51.1°F 46.9°F 86% 30.26 in 10.0 miles Calm Calm - N/A   Clear
10:52 PM 51.1°F 46.9°F 86% 30.24 in 10.0 miles NNE 4.6 mph - N/A   Clear
Moon Phase
Nov. 04 Nov. 06 Nov. 13 Nov. 20 Nov. 28
Sunrise:06:45 AM (PST) Moon Rise:09:15 PM (PST)11/4
Sunset:04:35 PM (PST) Moon Set:11:36 AM (PST)11/4

Copyright © 2014 The Weather Underground, Inc.